Weather History for Beaufort, NC

Change the Weather History Date:

Sunday, December 9, 2012

  Actual Average Record
Temperature  
Mean Temperature 61 °F -  
Max Temperature 71 °F 62 °F 73 °F (1953)
Min Temperature 51 °F 40 °F 21 °F (2006)
Degree Days  
Heating Degree Days 4    
Growing Degree Days 11 (Base 50)    
Moisture  
Dew Point 56 °F    
Average Humidity 88    
Maximum Humidity 100    
Minimum Humidity 59    
Precipitation  
Precipitation 0.01 in - - ()
Sea Level Pressure  
Sea Level Pressure 30.12 in    
Wind  
Wind Speed 2 mph (SE)    
Max Wind Speed 8 mph    
Max Gust Speed -    
Visibility 7 miles    
Events Fog    
Averages and records for this station are not official NWS values.
T = Trace of Precipitation, MM = Missing Value Source: NWS Daily Summary

Daily Weather History Graph

Daily Weather History Graph

Search for Another Location

Airport:

Trip Planner

Search our weather history database for the weather conditions in past years. The results will help you decide how hot, cold, wet, or windy it might be!

Date:

Astronomy

Dec. 09, 2012 Rise Set
Actual Time 7:02 AM EST 4:55 PM EST
Civil Twilight 6:34 AM EST 5:23 PM EST
Nautical Twilight 6:03 AM EST 5:55 PM EST
Astronomical Twilight 5:32 AM EST 6:25 PM EST
Moon 2:40 AM EST (12/9) 1:54 PM EST (12/9)
Length of Visible Light 10h 48m
Length of Day
9h 53m
Waning Crescent, 19% of the Moon is Illuminated
Dec 9
Waning Crescent
Dec 13
New
Dec 20
First Quarter
Dec 28
Full
Jan 4
Last Quarter

Hourly Weather History & Observations

Time (EST) Temp. Dew Point Humidity Pressure Visibility Wind Dir Wind Speed Gust Speed Precip Events Conditions
12:56 AM 55.0 °F 55.0 °F 100% 30.09 in 0.2 mi West 4.6 mph - N/A Fog Fog
2:56 AM 55.0 °F 55.0 °F 100% 30.10 in 0.2 mi Calm Calm - N/A Fog Fog
3:19 AM 53.6 °F 53.6 °F 100% 30.10 in 1.2 mi Calm Calm - N/A   Mostly Cloudy
3:26 AM 53.6 °F 53.6 °F 100% 30.10 in 1.0 mi Calm Calm - N/A   Overcast
3:35 AM 53.6 °F 53.6 °F 100% 30.10 in 0.8 mi Calm Calm - N/A   Overcast
3:38 AM 53.6 °F 53.6 °F 100% 30.10 in 1.2 mi Calm Calm - N/A   Overcast
3:41 AM 53.6 °F 53.6 °F 100% 30.10 in 3.0 mi Calm Calm - N/A   Overcast
3:56 AM 54.0 °F 54.0 °F 100% 30.11 in 8.0 mi Calm Calm - N/A   Overcast
4:56 AM 54.0 °F 53.1 °F 97% 30.12 in 8.0 mi Calm Calm - N/A   Overcast
5:56 AM 55.0 °F 55.0 °F 100% 30.13 in 9.0 mi Calm Calm - N/A   Overcast
6:56 AM 54.0 °F 54.0 °F 100% 30.14 in 3.0 mi Calm Calm - N/A   Clear
6:59 AM 53.6 °F 53.6 °F 100% 30.14 in 1.5 mi Calm Calm - N/A   Clear
7:29 AM 51.8 °F 51.8 °F 100% 30.15 in 1.2 mi Calm Calm - N/A   Clear
7:35 AM 53.6 °F 51.8 °F 94% 30.16 in 3.0 mi ESE 3.5 mph - N/A   Clear
7:56 AM 55.9 °F 55.0 °F 97% 30.16 in 5.0 mi Calm Calm - N/A   Clear
8:56 AM 62.1 °F 59.0 °F 90% 30.18 in 10.0 mi Calm Calm - 0.01 in   Clear
9:56 AM 64.9 °F 55.9 °F 73% 30.19 in 10.0 mi NW 4.6 mph - N/A   Clear
10:56 AM 68.0 °F 55.9 °F 65% 30.17 in 10.0 mi Calm Calm - N/A   Clear
11:56 AM 69.1 °F 57.0 °F 65% 30.16 in 10.0 mi SSE 4.6 mph - N/A   Clear
12:56 PM 71.1 °F 57.0 °F 61% 30.12 in 10.0 mi ESE 4.6 mph - N/A   Clear
1:56 PM 70.0 °F 55.0 °F 59% 30.11 in 10.0 mi East 5.8 mph - N/A   Clear
2:56 PM 68.0 °F 55.0 °F 63% 30.12 in 10.0 mi ESE 5.8 mph - N/A   Scattered Clouds
3:56 PM 66.9 °F 57.9 °F 73% 30.11 in 10.0 mi East 4.6 mph - N/A   Mostly Cloudy
4:56 PM 66.0 °F 57.9 °F 75% 30.10 in 10.0 mi East 3.5 mph - N/A   Clear
5:56 PM 63.0 °F 57.9 °F 84% 30.11 in 10.0 mi East 4.6 mph - N/A   Partly Cloudy
6:56 PM 62.1 °F 59.0 °F 90% 30.10 in 10.0 mi East 4.6 mph - N/A   Clear
7:56 PM 62.1 °F 61.0 °F 96% 30.09 in 10.0 mi ESE 5.8 mph - N/A   Clear
8:56 PM 66.0 °F 61.0 °F 84% 30.09 in 10.0 mi SSE 8.1 mph - N/A   Clear
9:56 PM 66.9 °F 63.0 °F 87% 30.07 in 10.0 mi SSE 8.1 mph - N/A   Overcast
10:56 PM 66.9 °F 63.0 °F 87% 30.06 in 10.0 mi SSE 8.1 mph - N/A   Overcast
11:56 PM 66.0 °F 63.0 °F 90% 30.04 in 10.0 mi South 8.1 mph - N/A   Mostly Cloudy